Volk, WI

1:18 AM CDT on October 23, 2017 (GMT -0500)
Volk

Weather History for KVOK - November, 2011

Change the Weather History Date:

Friday, November 18, 2011

  Actual Average Record
Temperature  
Mean Temperature 37 °F -  
Max Temperature 48 °F 38 °F 68 °F (2016)
Min Temperature 26 °F 26 °F 6 °F (2008)
Degree Days  
Heating Degree Days 28    
Moisture  
Dew Point 24 °F    
Average Humidity 63    
Maximum Humidity 93    
Minimum Humidity 43    
Precipitation  
Precipitation 0.00 in - - ()
Sea Level Pressure  
Sea Level Pressure 29.83 in    
Wind  
Wind Speed 11 mph (South)    
Max Wind Speed 20 mph    
Max Gust Speed 25 mph    
Visibility 10 miles    
Events      
Averages and records for this station are not official NWS values.
T = Trace of Precipitation, MM = Missing Value Source: NWS Daily Summary

Daily Weather History Graph

Daily Weather History Graph

Search for Another Location

Airport or City:

Trip Planner

Search our weather history database for the weather conditions in past years. The results will help you decide how hot, cold, wet, or windy it might be!

Date:

Astronomy

Nov. 18, 2011 Rise Set
Actual Time 6:59 AM CST 4:32 PM CST
Civil Twilight 6:28 AM CST 5:03 PM CST
Nautical Twilight 5:52 AM CST 5:38 PM CST
Astronomical Twilight 5:18 AM CST 6:13 PM CST
Moon No Moon Rise 12:32 PM CST (11/18)
Length of Visible Light 10h 35m
Length of Day
9h 33m
Waning Gibbous, 49% of the Moon is Illuminated
Nov 18
Waning Gibbous
Nov 25
New
Dec 2
First Quarter
Dec 10
Full
Dec 17
Last Quarter

Hourly Weather History & Observations

Time (CST) Temp. Windchill Dew Point Humidity Pressure Visibility Wind Dir Wind Speed Gust Speed Precip Events Conditions
12:55 AM 27.9 °F 17.8 °F 16.2 °F 62% 30.03 in 10.0 mi SSE 11.5 mph - N/A   Overcast
1:55 AM 30.0 °F 21.1 °F 17.2 °F 59% 29.99 in 10.0 mi SE 10.4 mph - N/A   Overcast
2:55 AM 32.9 °F 24.7 °F 18.9 °F 56% 29.96 in 10.0 mi SSE 10.4 mph - N/A   Scattered Clouds
3:55 AM 34.2 °F 24.8 °F 20.8 °F 58% 29.92 in 10.0 mi South 13.8 mph - N/A   Clear
4:55 AM 34.9 °F 25.7 °F 22.1 °F 60% 29.90 in 10.0 mi South 13.8 mph 23.0 mph N/A   Scattered Clouds
5:55 AM 33.8 °F 24.3 °F 22.1 °F 62% 29.88 in 10.0 mi South 13.8 mph - N/A   Partly Cloudy
6:55 AM 32.9 °F 26.7 °F 22.5 °F 65% 29.89 in 10.0 mi South 6.9 mph - N/A   Clear
7:55 AM 33.8 °F 27.7 °F 23.0 °F 65% 29.88 in 10.0 mi South 6.9 mph - N/A   Partly Cloudy
8:55 AM 37.4 °F 30.3 °F 23.0 °F 56% 29.87 in 10.0 mi South 10.4 mph - N/A   Clear
9:55 AM 41.0 °F 34.3 °F 23.0 °F 49% 29.85 in 10.0 mi SSW 11.5 mph - N/A   Scattered Clouds
10:55 AM 44.6 °F 36.6 °F 23.0 °F 43% 29.82 in 10.0 mi SSW 19.6 mph 25.3 mph N/A   Scattered Clouds
11:55 AM 46.4 °F 41.1 °F 24.8 °F 43% 29.79 in 10.0 mi SSW 11.5 mph 20.7 mph N/A   Mostly Cloudy
12:55 PM 46.4 °F 39.2 °F 24.8 °F 43% 29.75 in 10.0 mi SSW 18.4 mph 21.9 mph N/A   Mostly Cloudy
1:55 PM 44.6 °F 39.2 °F 24.8 °F 46% 29.73 in 10.0 mi South 10.4 mph 18.4 mph N/A   Mostly Cloudy
2:55 PM 48.2 °F - 26.6 °F 43% 29.74 in 10.0 mi SSW 9.2 mph - N/A   Mostly Cloudy
3:55 PM 44.6 °F 41.4 °F 26.6 °F 49% 29.74 in 10.0 mi SSW 5.8 mph - N/A   Partly Cloudy
4:55 PM 35.6 °F 31.7 °F 26.6 °F 70% 29.76 in 10.0 mi ESE 4.6 mph - N/A   Partly Cloudy
5:55 PM 30.2 °F 25.4 °F 24.8 °F 80% 29.77 in 10.0 mi SSE 4.6 mph - N/A   Clear
6:55 PM 26.6 °F 19.1 °F 24.8 °F 93% 29.77 in 10.0 mi SSE 6.9 mph - N/A   Clear
7:55 PM 32.0 °F 24.8 °F 26.6 °F 80% 29.76 in 10.0 mi SSE 8.1 mph - N/A   Clear
8:55 PM 28.4 °F 20.4 °F 26.6 °F 93% 29.76 in 10.0 mi SSE 8.1 mph - N/A   Clear
9:55 PM 32.0 °F 24.2 °F 26.6 °F 80% 29.76 in 10.0 mi SSE 9.2 mph - N/A   Clear
10:55 PM 32.0 °F 24.2 °F 26.6 °F 80% 29.75 in 10.0 mi South 9.2 mph - N/A   Clear
11:55 PM 35.6 °F 27.5 °F 28.4 °F 75% 29.75 in 10.0 mi South 11.5 mph - N/A   Clear